TVF298G LFPO-DAAE

Flight info

Callsign TVF298G
Flight time 2h 5m
Altitude 35000
Route ERIXU DCT ETAMO DCT ADEKA DCT MOKDI DCT MEN DCT AMLIR DCT FJR UM731 DIVKO DCT JUSQO DCT FIRRA DCT LUNOR DCT DOLIS UN736 BJA
Aircraft B738/M-SDFGHIJ1RWXY/LB1

Departure

Time 2026-05-05 08:49
Airport Paris-Orly Airport (LFPO)

Arrival

Time 2026-05-05 10:54
Airport Soummam–Abane Ramdane Airport (DAAE)
Time Latitude Longitude Altitude Speed Heading
2026-05-05 08:15 48.72588 2.36249 294 ft 0 kts 348°
2026-05-05 08:41 48.72582 2.36251 293 ft 4 kts 348°
2026-05-05 08:42 48.72557 2.36258 295 ft 2 kts 348°
2026-05-05 08:42 48.72535 2.36268 296 ft 4 kts 326°
2026-05-05 08:42 48.72521 2.36295 298 ft 4 kts 269°
2026-05-05 08:42 48.72525 2.36332 297 ft 4 kts 255°
2026-05-05 08:43 48.72527 2.36341 297 ft 1 kts 255°
2026-05-05 08:44 48.72526 2.36338 297 ft 2 kts 255°
2026-05-05 08:45 48.72516 2.36280 294 ft 7 kts 255°
2026-05-05 08:45 48.72483 2.36232 295 ft 7 kts 192°
2026-05-05 08:45 48.72429 2.36211 297 ft 10 kts 217°
2026-05-05 08:45 48.72399 2.36097 298 ft 13 kts 255°
2026-05-05 08:46 48.72374 2.35967 298 ft 13 kts 253°
2026-05-05 08:46 48.72350 2.35840 295 ft 12 kts 255°
2026-05-05 08:46 48.72327 2.35715 296 ft 12 kts 254°
2026-05-05 08:46 48.72282 2.35616 297 ft 12 kts 208°
2026-05-05 08:47 48.72203 2.35613 297 ft 11 kts 166°
2026-05-05 08:47 48.72117 2.35646 294 ft 14 kts 160°
2026-05-05 08:47 48.72037 2.35736 294 ft 15 kts 126°
2026-05-05 08:47 48.71985 2.35865 295 ft 14 kts 118°
2026-05-05 08:48 48.71967 2.35994 295 ft 7 kts 77°
2026-05-05 08:48 48.71969 2.36005 294 ft 1 kts 75°
2026-05-05 08:48 48.72031 2.36345 296 ft 70 kts 74°
2026-05-05 08:48 48.72222 2.37389 296 ft 134 kts 74°
2026-05-05 08:49 48.72502 2.38944 569 ft 162 kts 73°
2026-05-05 08:49 48.72807 2.40589 1440 ft 161 kts 72°
2026-05-05 08:49 48.73116 2.42224 2300 ft 163 kts 73°
2026-05-05 08:49 48.73427 2.43890 3116 ft 166 kts 75°
2026-05-05 08:50 48.73748 2.45598 3768 ft 177 kts 74°
2026-05-05 08:50 48.74049 2.47544 3997 ft 202 kts 82°
2026-05-05 08:50 48.74152 2.49782 4223 ft 224 kts 85°
2026-05-05 08:50 48.74228 2.52163 4615 ft 238 kts 86°
2026-05-05 08:51 48.74310 2.54804 5000 ft 254 kts 89°
2026-05-05 08:51 48.73938 2.57442 5780 ft 261 kts 113°
2026-05-05 08:51 48.72831 2.59617 6690 ft 267 kts 140°
2026-05-05 08:51 48.71148 2.60911 7400 ft 279 kts 161°
2026-05-05 08:52 48.69249 2.61528 8296 ft 279 kts 168°
2026-05-05 08:52 48.67318 2.62013 9004 ft 285 kts 168°
2026-05-05 08:52 48.65321 2.62249 9725 ft 294 kts 186°
2026-05-05 08:52 48.63394 2.61167 10303 ft 307 kts 213°
2026-05-05 08:53 48.61819 2.58864 10486 ft 332 kts 229°
2026-05-05 08:53 48.60310 2.56074 10677 ft 354 kts 231°
2026-05-05 08:53 48.58839 2.53292 11100 ft 365 kts 231°
2026-05-05 08:53 48.57234 2.50287 11713 ft 370 kts 230°
2026-05-05 08:54 48.55593 2.47272 12391 ft 373 kts 230°
2026-05-05 08:54 48.53932 2.44255 13137 ft 375 kts 230°
2026-05-05 08:54 48.52189 2.41311 13761 ft 379 kts 220°
2026-05-05 08:54 48.49981 2.39170 14455 ft 377 kts 207°
2026-05-05 08:55 48.47677 2.37263 15189 ft 379 kts 207°
2026-05-05 08:55 48.45386 2.35285 15940 ft 380 kts 208°
2026-05-05 08:55 48.43089 2.33283 16647 ft 383 kts 208°
2026-05-05 08:55 48.40790 2.31252 17415 ft 383 kts 208°
2026-05-05 08:56 48.38491 2.29223 18180 ft 384 kts 208°
2026-05-05 08:56 48.36195 2.27198 18655 ft 388 kts 208°
2026-05-05 08:56 48.33859 2.25140 19139 ft 391 kts 208°
2026-05-05 08:56 48.31503 2.23076 19632 ft 393 kts 207°
2026-05-05 08:57 48.28961 2.21637 20068 ft 391 kts 188°
2026-05-05 08:57 48.26258 2.21501 20552 ft 390 kts 172°
2026-05-05 08:57 48.23575 2.22133 21037 ft 391 kts 169°
2026-05-05 08:57 48.20882 2.22850 21449 ft 395 kts 169°
2026-05-05 08:58 48.18167 2.23569 21934 ft 397 kts 169°
2026-05-05 08:58 48.15433 2.24266 22448 ft 400 kts 170°
2026-05-05 08:58 48.12669 2.24947 22934 ft 404 kts 170°
2026-05-05 08:58 48.09880 2.25621 23386 ft 407 kts 170°
2026-05-05 08:59 48.07076 2.26230 23766 ft 408 kts 174°
2026-05-05 08:59 48.04237 2.26536 24120 ft 410 kts 176°
2026-05-05 08:59 48.01375 2.26691 24468 ft 413 kts 178°
2026-05-05 08:59 47.98494 2.26802 24835 ft 415 kts 178°
2026-05-05 09:00 47.95599 2.26917 25189 ft 417 kts 178°
2026-05-05 09:00 47.92690 2.27052 25556 ft 419 kts 177°
2026-05-05 09:00 47.89774 2.27207 25941 ft 420 kts 177°
2026-05-05 09:00 47.86848 2.27377 26275 ft 422 kts 177°
2026-05-05 09:01 47.83903 2.27557 26615 ft 425 kts 177°
2026-05-05 09:01 47.80947 2.27744 26956 ft 427 kts 177°
2026-05-05 09:01 47.77970 2.27933 27328 ft 429 kts 177°
2026-05-05 09:01 47.74976 2.28125 27560 ft 434 kts 177°
2026-05-05 09:02 47.71949 2.28318 27861 ft 437 kts 176°
2026-05-05 09:02 47.68909 2.28511 28254 ft 437 kts 177°
2026-05-05 09:02 47.65872 2.28704 28610 ft 437 kts 177°
2026-05-05 09:02 47.62830 2.28896 28976 ft 438 kts 177°
2026-05-05 09:03 47.59835 2.29085 29437 ft 436 kts 177°
2026-05-05 09:03 47.56811 2.29275 29923 ft 433 kts 177°
2026-05-05 09:03 47.53763 2.29467 30248 ft 433 kts 177°
2026-05-05 09:03 47.50793 2.29654 30568 ft 432 kts 177°
2026-05-05 09:04 47.47800 2.29841 30981 ft 429 kts 177°
2026-05-05 09:04 47.44829 2.30028 31428 ft 425 kts 177°
2026-05-05 09:04 47.41884 2.30212 31838 ft 423 kts 177°
2026-05-05 09:04 47.38949 2.30396 32205 ft 421 kts 177°
2026-05-05 09:05 47.36030 2.30579 32562 ft 419 kts 176°
2026-05-05 09:05 47.33116 2.30761 32859 ft 419 kts 176°
2026-05-05 09:05 47.30208 2.30942 33186 ft 418 kts 176°
2026-05-05 09:05 47.27318 2.31122 33616 ft 414 kts 176°
2026-05-05 09:06 47.24451 2.31301 33996 ft 411 kts 177°
2026-05-05 09:06 47.21594 2.31478 34187 ft 412 kts 177°
2026-05-05 09:06 47.18724 2.31657 34323 ft 414 kts 177°
2026-05-05 09:06 47.15838 2.31836 34460 ft 416 kts 177°
2026-05-05 09:07 47.12945 2.32016 34617 ft 417 kts 177°
2026-05-05 09:07 47.10040 2.32195 34795 ft 418 kts 177°
2026-05-05 09:07 47.07125 2.32376 34814 ft 421 kts 177°
2026-05-05 09:08 47.01261 2.32738 34831 ft 421 kts 177°
2026-05-05 09:08 46.95442 2.33097 34830 ft 416 kts 177°
2026-05-05 09:09 46.89668 2.33452 34844 ft 414 kts 177°
2026-05-05 09:09 46.84040 2.34840 34849 ft 416 kts 162°
2026-05-05 09:10 46.78838 2.38563 34847 ft 420 kts 149°
2026-05-05 09:10 46.73955 2.43263 34849 ft 420 kts 148°
2026-05-05 09:11 46.69090 2.47968 34842 ft 419 kts 149°
2026-05-05 09:11 46.64226 2.52616 34849 ft 418 kts 149°
2026-05-05 09:12 46.59360 2.57231 34860 ft 418 kts 149°
2026-05-05 09:12 46.54477 2.61844 34849 ft 419 kts 149°
2026-05-05 09:13 46.49579 2.66461 34856 ft 421 kts 149°
2026-05-05 09:13 46.44659 2.71090 34865 ft 422 kts 149°
2026-05-05 09:14 46.39715 2.75731 34861 ft 424 kts 149°
2026-05-05 09:14 46.34751 2.80382 34855 ft 426 kts 149°
2026-05-05 09:15 46.29775 2.85034 34864 ft 427 kts 149°
2026-05-05 09:15 46.24815 2.89660 34870 ft 427 kts 149°
2026-05-05 09:16 46.19815 2.94313 34868 ft 428 kts 149°
2026-05-05 09:16 46.14819 2.98953 34877 ft 427 kts 149°
2026-05-05 09:17 46.09823 3.03584 34868 ft 427 kts 150°
2026-05-05 09:17 46.04830 3.08202 34876 ft 426 kts 150°
2026-05-05 09:18 45.99845 3.12802 34896 ft 426 kts 150°
2026-05-05 09:18 45.94635 3.16718 34891 ft 420 kts 165°
2026-05-05 09:19 45.88921 3.18061 34906 ft 415 kts 181°
2026-05-05 09:19 45.83143 3.17943 34910 ft 416 kts 182°
2026-05-05 09:20 45.77358 3.17800 34916 ft 416 kts 182°
2026-05-05 09:20 45.71562 3.17696 34910 ft 417 kts 182°
2026-05-05 09:21 45.65760 3.17613 34877 ft 417 kts 182°
2026-05-05 09:21 45.59953 3.17537 34882 ft 417 kts 182°
2026-05-05 09:22 45.54145 3.17462 34891 ft 418 kts 182°
2026-05-05 09:22 45.48324 3.17385 34878 ft 419 kts 182°
2026-05-05 09:23 45.42496 3.17309 34880 ft 418 kts 182°
2026-05-05 09:23 45.37650 3.17246 34890 ft 420 kts 182°
2026-05-05 09:24 45.31814 3.17169 34885 ft 419 kts 183°
2026-05-05 09:24 45.25992 3.17093 34894 ft 418 kts 183°
2026-05-05 09:26 45.08281 3.16863 34902 ft 416 kts 184°
2026-05-05 09:26 45.02494 3.16788 34917 ft 415 kts 184°
2026-05-05 09:27 44.96716 3.16713 34916 ft 415 kts 184°
2026-05-05 09:27 44.90944 3.16635 34919 ft 414 kts 184°
2026-05-05 09:28 44.85186 3.16550 34928 ft 414 kts 184°
2026-05-05 09:28 44.79423 3.16467 34925 ft 414 kts 184°
2026-05-05 09:29 44.73662 3.16384 34924 ft 414 kts 184°
2026-05-05 09:29 44.67904 3.16301 34931 ft 414 kts 184°
2026-05-05 09:30 44.62150 3.16219 34936 ft 414 kts 184°
2026-05-05 09:30 44.56394 3.16249 34935 ft 414 kts 183°
2026-05-05 09:31 44.50693 3.16383 34934 ft 414 kts 184°
2026-05-05 09:31 44.44977 3.17342 34952 ft 423 kts 168°
2026-05-05 09:32 44.39563 3.20813 34945 ft 435 kts 153°
2026-05-05 09:32 44.34554 3.25599 34933 ft 437 kts 152°
2026-05-05 09:33 44.29566 3.30440 34936 ft 436 kts 152°
2026-05-05 09:33 44.24569 3.35219 34945 ft 435 kts 152°
2026-05-05 09:34 44.19555 3.39965 34948 ft 436 kts 152°
2026-05-05 09:34 44.14533 3.44697 34927 ft 435 kts 153°
2026-05-05 09:35 44.09526 3.49402 34934 ft 435 kts 153°
2026-05-05 09:35 44.01988 3.56422 34932 ft 435 kts 154°
2026-05-05 09:36 43.96954 3.61116 34910 ft 436 kts 155°
2026-05-05 09:36 43.91917 3.65823 34934 ft 438 kts 154°
2026-05-05 09:37 43.86920 3.70717 34933 ft 440 kts 153°
2026-05-05 09:37 43.81868 3.75392 34932 ft 439 kts 154°
2026-05-05 09:38 43.76755 3.80018 34918 ft 439 kts 154°
2026-05-05 09:38 43.71672 3.84694 34928 ft 438 kts 154°
2026-05-05 09:39 43.66609 3.89377 34935 ft 437 kts 155°
2026-05-05 09:39 43.61551 3.94046 34933 ft 437 kts 155°
2026-05-05 09:40 43.56662 3.99097 34931 ft 448 kts 143°
2026-05-05 09:40 43.52482 4.05559 34930 ft 452 kts 140°
2026-05-05 09:41 43.48362 4.12094 34941 ft 451 kts 140°
2026-05-05 09:41 43.44253 4.18517 34939 ft 450 kts 140°
2026-05-05 09:42 43.40494 4.24334 34938 ft 449 kts 140°
2026-05-05 09:42 43.36724 4.30144 34940 ft 449 kts 141°
2026-05-05 09:43 43.34078 4.34213 34929 ft 449 kts 141°
2026-05-05 09:43 43.32428 4.36732 34935 ft 448 kts 141°
2026-05-05 09:44 43.30805 4.39142 34939 ft 446 kts 142°
2026-05-05 09:44 43.28211 4.43621 34970 ft 450 kts 139°
2026-05-05 09:45 43.24875 4.48529 34947 ft 445 kts 143°
2026-05-05 09:45 43.20714 4.54660 34940 ft 448 kts 141°
2026-05-05 09:46 43.16755 4.60715 34944 ft 448 kts 140°
2026-05-05 09:46 43.12596 4.67076 34922 ft 449 kts 140°
2026-05-05 09:47 43.08412 4.73415 34943 ft 448 kts 142°
2026-05-05 09:47 43.06105 4.76189 34943 ft 436 kts 153°
2026-05-05 09:47 43.03555 4.78351 34954 ft 428 kts 161°
2026-05-05 09:48 42.98087 4.81162 34957 ft 418 kts 170°
2026-05-05 09:48 42.92564 4.83535 34952 ft 420 kts 170°
2026-05-05 09:49 42.86992 4.85980 34951 ft 421 kts 169°
2026-05-05 09:49 42.81408 4.88460 34954 ft 423 kts 169°
2026-05-05 09:50 42.75808 4.90945 34954 ft 423 kts 169°
2026-05-05 09:50 42.70178 4.93162 34962 ft 419 kts 174°
2026-05-05 09:51 42.64498 4.94941 34960 ft 419 kts 174°
2026-05-05 09:51 42.58817 4.96694 34957 ft 418 kts 174°
2026-05-05 09:52 42.53143 4.98470 34959 ft 418 kts 174°
2026-05-05 09:52 42.47474 5.00258 34967 ft 418 kts 174°
2026-05-05 09:53 42.41810 5.02047 34968 ft 418 kts 174°
2026-05-05 09:53 42.36141 5.03833 34971 ft 418 kts 174°
2026-05-05 09:54 42.30464 5.05619 34969 ft 419 kts 174°
2026-05-05 09:54 42.24788 5.07401 34957 ft 419 kts 174°
2026-05-05 09:55 42.19111 5.09180 34967 ft 419 kts 174°
2026-05-05 09:55 42.14390 5.10657 34967 ft 419 kts 174°
2026-05-05 09:56 42.08702 5.12433 34975 ft 419 kts 174°
2026-05-05 09:56 42.03021 5.14204 34964 ft 419 kts 175°
2026-05-05 09:57 41.97338 5.15973 34972 ft 419 kts 175°
2026-05-05 09:57 41.91663 5.17736 34973 ft 419 kts 175°
2026-05-05 09:58 41.85987 5.19496 34957 ft 418 kts 175°
2026-05-05 09:58 41.80319 5.21251 34971 ft 418 kts 175°
2026-05-05 09:59 41.74654 5.23001 34976 ft 417 kts 175°
2026-05-05 09:59 41.69001 5.24745 34975 ft 417 kts 175°
2026-05-05 10:00 41.63343 5.26343 34961 ft 409 kts 182°
2026-05-05 10:00 41.57711 5.26991 34978 ft 405 kts 185°
2026-05-05 10:01 41.52084 5.27528 34977 ft 406 kts 185°
2026-05-05 10:01 41.46444 5.28101 34977 ft 407 kts 184°
2026-05-05 10:02 41.40835 5.28701 34968 ft 407 kts 184°
2026-05-05 10:02 41.35185 5.29316 34975 ft 408 kts 184°
2026-05-05 10:03 41.29529 5.29932 34979 ft 408 kts 184°
2026-05-05 10:03 41.23859 5.30549 34979 ft 409 kts 184°
2026-05-05 10:04 41.18180 5.31166 34981 ft 409 kts 184°
2026-05-05 10:04 41.12501 5.31780 34978 ft 410 kts 184°
2026-05-05 10:05 41.06810 5.32396 34977 ft 411 kts 184°
2026-05-05 10:05 41.01110 5.33011 34976 ft 411 kts 184°
2026-05-05 10:06 40.95406 5.33626 34977 ft 411 kts 184°
2026-05-05 10:06 40.89700 5.34239 34981 ft 412 kts 184°
2026-05-05 10:07 40.83976 5.34853 34978 ft 413 kts 184°
2026-05-05 10:07 40.78233 5.35468 34963 ft 414 kts 184°
2026-05-05 10:08 40.72523 5.36080 34980 ft 415 kts 184°
2026-05-05 10:08 40.66759 5.36695 34986 ft 416 kts 184°
2026-05-05 10:09 40.60976 5.37312 34990 ft 417 kts 184°
2026-05-05 10:09 40.55185 5.37929 34991 ft 418 kts 184°
2026-05-05 10:10 40.49387 5.38545 34993 ft 418 kts 184°
2026-05-05 10:10 40.43584 5.39161 34980 ft 418 kts 184°
2026-05-05 10:11 40.37790 5.39730 34990 ft 414 kts 187°
2026-05-05 10:11 40.32067 5.39681 34992 ft 411 kts 189°
2026-05-05 10:12 40.26337 5.39540 34989 ft 411 kts 189°
2026-05-05 10:12 40.20618 5.39420 34993 ft 411 kts 189°
2026-05-05 10:13 40.14894 5.39319 34993 ft 411 kts 189°
2026-05-05 10:13 40.09175 5.39226 34990 ft 412 kts 189°
2026-05-05 10:14 40.03439 5.39134 34988 ft 412 kts 189°
2026-05-05 10:14 39.97709 5.39043 34997 ft 412 kts 189°
2026-05-05 10:15 39.91977 5.38952 34997 ft 412 kts 189°
2026-05-05 10:15 39.86248 5.38860 34997 ft 412 kts 189°
2026-05-05 10:16 39.80514 5.38768 34991 ft 412 kts 189°
2026-05-05 10:16 39.74772 5.38676 34998 ft 413 kts 189°
2026-05-05 10:17 39.69029 5.38585 35009 ft 413 kts 189°
2026-05-05 10:17 39.63503 5.38497 35000 ft 414 kts 188°
2026-05-05 10:18 39.57765 5.38406 34997 ft 415 kts 188°
2026-05-05 10:18 39.51991 5.38315 35000 ft 415 kts 188°
2026-05-05 10:19 39.46211 5.38224 34999 ft 416 kts 188°
2026-05-05 10:19 39.40425 5.38133 34988 ft 415 kts 188°
2026-05-05 10:20 39.34645 5.38042 34996 ft 415 kts 188°
2026-05-05 10:20 39.28907 5.37952 34996 ft 415 kts 188°
2026-05-05 10:21 39.23093 5.37861 34997 ft 415 kts 188°
2026-05-05 10:21 39.17324 5.37771 34987 ft 414 kts 188°
2026-05-05 10:22 39.11558 5.37680 34991 ft 414 kts 188°
2026-05-05 10:22 39.05832 5.37591 34990 ft 414 kts 188°
2026-05-05 10:23 39.00063 5.37501 34992 ft 414 kts 188°
2026-05-05 10:23 38.94306 5.37355 34983 ft 414 kts 189°
2026-05-05 10:24 38.88554 5.37170 34998 ft 413 kts 189°
2026-05-05 10:24 38.82881 5.36997 34648 ft 401 kts 189°
2026-05-05 10:25 38.80117 5.36917 34302 ft 395 kts 189°
2026-05-05 10:25 38.77381 5.36836 33932 ft 391 kts 189°
2026-05-05 10:25 38.74672 5.36754 33503 ft 387 kts 188°
2026-05-05 10:25 38.71993 5.36674 33115 ft 383 kts 189°
2026-05-05 10:26 38.69340 5.36594 32724 ft 380 kts 189°
2026-05-05 10:26 38.66710 5.36515 32348 ft 376 kts 189°
2026-05-05 10:26 38.64103 5.36437 31979 ft 373 kts 189°
2026-05-05 10:26 38.61519 5.36359 31610 ft 370 kts 189°
2026-05-05 10:27 38.58958 5.36283 31248 ft 367 kts 189°
2026-05-05 10:27 38.56416 5.36207 30891 ft 364 kts 189°
2026-05-05 10:27 38.53893 5.36131 30536 ft 362 kts 189°
2026-05-05 10:27 38.51383 5.36057 30153 ft 359 kts 189°
2026-05-05 10:28 38.48926 5.35983 29784 ft 357 kts 189°
2026-05-05 10:28 38.46452 5.35910 29389 ft 354 kts 189°
2026-05-05 10:28 38.44000 5.35838 29022 ft 350 kts 189°
2026-05-05 10:28 38.41574 5.35767 28646 ft 347 kts 189°
2026-05-05 10:29 38.39170 5.35696 28297 ft 344 kts 189°
2026-05-05 10:29 38.36789 5.35626 27927 ft 341 kts 189°
2026-05-05 10:29 38.34425 5.35556 27572 ft 338 kts 189°
2026-05-05 10:29 38.32079 5.35486 27220 ft 336 kts 189°
2026-05-05 10:30 38.29753 5.35418 26872 ft 333 kts 190°
2026-05-05 10:30 38.27443 5.35349 26530 ft 331 kts 190°
2026-05-05 10:30 38.25146 5.35280 26192 ft 330 kts 190°
2026-05-05 10:30 38.22850 5.35211 25853 ft 330 kts 190°
2026-05-05 10:31 38.20526 5.35137 25520 ft 339 kts 190°
2026-05-05 10:31 38.18142 5.35059 25166 ft 346 kts 189°
2026-05-05 10:31 38.15738 5.34987 24786 ft 345 kts 189°
2026-05-05 10:31 38.13349 5.34920 24430 ft 343 kts 189°
2026-05-05 10:32 38.10972 5.34854 24072 ft 341 kts 189°
2026-05-05 10:32 38.08608 5.34788 23710 ft 339 kts 190°
2026-05-05 10:32 38.06257 5.34720 23292 ft 337 kts 189°
2026-05-05 10:32 38.03918 5.34653 22909 ft 335 kts 189°
2026-05-05 10:33 38.01601 5.34587 22541 ft 332 kts 189°
2026-05-05 10:33 37.99301 5.34520 22186 ft 329 kts 189°
2026-05-05 10:33 37.97017 5.34454 21837 ft 327 kts 189°
2026-05-05 10:33 37.94754 5.34388 21493 ft 324 kts 189°
2026-05-05 10:34 37.92509 5.34322 21154 ft 322 kts 188°
2026-05-05 10:34 37.90278 5.34257 20816 ft 320 kts 188°
2026-05-05 10:34 37.88060 5.34192 20483 ft 318 kts 188°
2026-05-05 10:34 37.85852 5.34127 20147 ft 317 kts 188°
2026-05-05 10:35 37.83655 5.34062 19814 ft 315 kts 188°
2026-05-05 10:35 37.81466 5.33998 19467 ft 314 kts 188°
2026-05-05 10:35 37.79284 5.33934 19142 ft 313 kts 188°
2026-05-05 10:35 37.77110 5.33870 18814 ft 312 kts 187°
2026-05-05 10:36 37.74964 5.33807 18470 ft 313 kts 187°
2026-05-05 10:36 37.72791 5.33744 18107 ft 313 kts 187°
2026-05-05 10:36 37.70620 5.33680 17752 ft 311 kts 187°
2026-05-05 10:36 37.68458 5.33618 17403 ft 310 kts 187°
2026-05-05 10:37 37.66306 5.33556 17064 ft 309 kts 187°
2026-05-05 10:37 37.64165 5.33494 16740 ft 307 kts 186°
2026-05-05 10:37 37.62033 5.33432 16414 ft 306 kts 186°
2026-05-05 10:37 37.59913 5.33371 16091 ft 304 kts 186°
2026-05-05 10:38 37.57799 5.33310 15758 ft 303 kts 186°
2026-05-05 10:38 37.55699 5.33249 15443 ft 302 kts 186°
2026-05-05 10:38 37.53602 5.33188 15135 ft 301 kts 186°
2026-05-05 10:38 37.51514 5.33128 14813 ft 300 kts 186°
2026-05-05 10:39 37.49431 5.33067 14495 ft 299 kts 186°
2026-05-05 10:39 37.47352 5.33007 14176 ft 298 kts 185°
2026-05-05 10:39 37.45279 5.32947 13856 ft 298 kts 185°
2026-05-05 10:39 37.43206 5.32887 13497 ft 298 kts 185°
2026-05-05 10:40 37.41141 5.32828 13150 ft 296 kts 185°
2026-05-05 10:40 37.39082 5.32769 12820 ft 295 kts 185°
2026-05-05 10:40 37.37036 5.32711 12497 ft 293 kts 185°
2026-05-05 10:40 37.34999 5.32653 12162 ft 292 kts 185°
2026-05-05 10:41 37.32972 5.32594 11846 ft 291 kts 185°
2026-05-05 10:41 37.30952 5.32536 11534 ft 289 kts 185°
2026-05-05 10:41 37.28943 5.32479 11220 ft 288 kts 185°
2026-05-05 10:41 37.26941 5.32421 10914 ft 287 kts 185°
2026-05-05 10:42 37.22957 5.32307 10303 ft 285 kts 185°
2026-05-05 10:42 37.21001 5.32252 10178 ft 277 kts 185°
2026-05-05 10:42 37.19097 5.32199 10038 ft 270 kts 185°
2026-05-05 10:43 37.17857 5.32164 9860 ft 269 kts 185°
2026-05-05 10:43 37.15990 5.32110 9565 ft 268 kts 185°
2026-05-05 10:43 37.14134 5.32056 9275 ft 266 kts 186°
2026-05-05 10:43 37.12288 5.32003 8991 ft 265 kts 186°
2026-05-05 10:44 37.10453 5.31950 8694 ft 263 kts 186°
2026-05-05 10:44 37.08625 5.31898 8418 ft 262 kts 186°
2026-05-05 10:44 37.06808 5.31846 8139 ft 261 kts 186°
2026-05-05 10:44 37.04996 5.31794 7863 ft 260 kts 186°
2026-05-05 10:45 37.03194 5.31742 7592 ft 259 kts 186°
2026-05-05 10:45 37.01394 5.31691 7313 ft 258 kts 186°
2026-05-05 10:45 36.99598 5.31639 7037 ft 258 kts 186°
2026-05-05 10:45 36.97799 5.31588 6761 ft 259 kts 186°
2026-05-05 10:46 36.95997 5.31536 6488 ft 259 kts 187°
2026-05-05 10:46 36.94189 5.31484 6186 ft 260 kts 186°
2026-05-05 10:46 36.92380 5.31432 5886 ft 260 kts 186°
2026-05-05 10:46 36.90570 5.31400 5586 ft 261 kts 182°
2026-05-05 10:47 36.88735 5.31650 5194 ft 267 kts 175°
2026-05-05 10:47 36.86924 5.32015 5155 ft 255 kts 175°
2026-05-05 10:47 36.85221 5.32357 5049 ft 240 kts 176°
2026-05-05 10:47 36.83618 5.32660 4944 ft 226 kts 176°
2026-05-05 10:48 36.82100 5.32937 4776 ft 217 kts 176°
2026-05-05 10:48 36.80600 5.33202 4210 ft 223 kts 176°
2026-05-05 10:48 36.79107 5.33467 4082 ft 212 kts 175°
2026-05-05 10:48 36.77695 5.33718 4020 ft 199 kts 174°
2026-05-05 10:49 36.76327 5.33947 3989 ft 198 kts 179°
2026-05-05 10:49 36.75044 5.33557 3952 ft 191 kts 219°
2026-05-05 10:49 36.74370 5.32154 3794 ft 196 kts 255°
2026-05-05 10:49 36.74049 5.30491 3531 ft 199 kts 252°
2026-05-05 10:50 36.73759 5.28823 3277 ft 196 kts 258°
2026-05-05 10:50 36.73556 5.27150 3008 ft 195 kts 259°
2026-05-05 10:50 36.73365 5.25496 2740 ft 189 kts 259°
2026-05-05 10:50 36.73183 5.23936 2507 ft 175 kts 260°
2026-05-05 10:51 36.73013 5.22490 2270 ft 162 kts 260°
2026-05-05 10:51 36.72856 5.21152 2109 ft 152 kts 260°
2026-05-05 10:51 36.72702 5.19843 1879 ft 153 kts 261°
2026-05-05 10:51 36.72547 5.18528 1690 ft 154 kts 261°
2026-05-05 10:52 36.72392 5.17209 1487 ft 153 kts 260°
2026-05-05 10:52 36.72234 5.15897 1300 ft 150 kts 259°
2026-05-05 10:52 36.72081 5.14622 1081 ft 150 kts 263°
2026-05-05 10:52 36.71951 5.13343 903 ft 152 kts 262°
2026-05-05 10:53 36.71789 5.12049 681 ft 148 kts 262°
2026-05-05 10:53 36.71644 5.10800 471 ft 146 kts 262°
2026-05-05 10:53 36.71498 5.09549 265 ft 144 kts 261°
2026-05-05 10:53 36.71356 5.08326 56 ft 141 kts 261°
2026-05-05 10:54 36.71225 5.07222 20 ft 114 kts 262°
2026-05-05 10:54 36.71134 5.06431 27 ft 57 kts 262°
2026-05-05 10:54 36.71095 5.06095 25 ft 31 kts 262°
2026-05-05 10:54 36.71065 5.05840 24 ft 27 kts 261°
2026-05-05 10:55 36.71069 5.05699 24 ft 10 kts 265°
2026-05-05 10:55 36.71039 5.05699 26 ft 6 kts 106°
2026-05-05 10:55 36.71057 5.05786 25 ft 17 kts 78°
2026-05-05 10:55 36.71081 5.05984 25 ft 26 kts 79°
2026-05-05 10:56 36.71108 5.06204 24 ft 25 kts 83°
2026-05-05 10:56 36.71131 5.06410 24 ft 23 kts 82°
2026-05-05 10:56 36.71154 5.06606 21 ft 23 kts 82°
2026-05-05 10:56 36.71181 5.06827 19 ft 26 kts 81°
2026-05-05 10:57 36.71248 5.06937 19 ft 14 kts 359°
2026-05-05 10:57 36.71341 5.06934 21 ft 13 kts 25°
2026-05-05 10:57 36.71371 5.07036 21 ft 13 kts 81°
2026-05-05 10:57 36.71384 5.07145 20 ft 13 kts 82°
2026-05-05 10:58 36.71396 5.07246 23 ft 8 kts 75°
2026-05-05 10:58 36.71428 5.07271 20 ft 5 kts 358°
2026-05-05 10:58 36.71437 5.07247 21 ft 3 kts 246°
2026-05-05 10:58 36.71432 5.07244 20 ft 0 kts 211°